Powrót do katalogu

KUIPER-00145

AktywnyŁącznośćLEO
NORAD 65767·PAYLOAD·🇺🇸 United States

Wystrzelony Sep 25, 2025 z Cape Canaveral Space Force Station

Loading…

Następne Przeloty (najbliższe 24 godziny)

TLE

ŚwieżeSource: CelesTrak SupGP

Epoka: Sep 14, 2026, 20:23 UTC

1 65767C 25217F   26257.84972222  .00000320  00000+0  41824-4 0  2570
2 65767  51.8988 281.6393 0000506  55.1862 358.1647 14.79930018    19

Śledź KUIPER-00145 w czasie rzeczywistym z AllMySat

Download on the App Store